Location: Kapla
(46.2483°N, 15.0094°E)
Time: 12:56:05
(UTC+00:00)

Cosmos 864 Rocket - Pass Details

Date: 03 March 2021
Orbit: 954 x 991 km, 82.9° (Epoch: 20 April)

Event Time Altitude Azimuth Distance (km) Brightness Sun altitude
Rises 19:04:21 0° 189° (S) 3,622 7.4 -24.0°
Reaches altitude 10° 19:06:50 10° 191° (S) 2,683 6.7 -24.4°
Maximum altitude 19:12:59 81° 279° (W) 982 4.5 -25.4°
Drops below altitude 10° 19:19:14 10° 7° (N) 2,725 7.0 -26.4°
Sets 19:21:46 0° 8° (N) 3,682 7.7 -26.8°
